FW1404 Weather Reports


Display with metric or nautical units.
time (UTC)temp
F
wind
direction
speed
MPH
gust
MPH
rain 1hr
in
rain 24hr
in
rain mn
in
humidity
%
barometer
mb
20181117103317 37 73 7.0 10.0 0.00 0.00 0.00 77 1037.7
20181117102820 37 68 7.0 9.0 0.00 0.00 0.00 77 1037.7
20181117102318 37 51 7.0 9.0 0.00 0.00 0.00 79 1037.8
20181117101820 37 80 5.0 7.0 0.00 0.00 0.00 79 1037.9
20181117101318 37 37 5.0 7.0 0.00 0.00 0.00 80 1037.9
20181117100819 36 43 6.0 10.0 0.00 0.00 0.00 80 1037.7
20181117100318 37 60 5.0 10.0 0.00 0.00 0.00 80 1037.8
20181117095819 37 10 4.0 7.0 0.00 0.00 0.00 80 1037.8
20181117095315 36 44 5.0 11.0 0.00 0.00 0.00 80 1037.8
20181117094822 37 40 8.0 11.0 0.00 0.00 0.00 80 1037.7
20181117094320 36 70 6.0 7.0 0.00 0.00 0.00 80 1037.5
20181117093820 36 39 4.0 10.0 0.00 0.00 0.00 81 1037.8
20181117093318 36 49 5.0 10.0 0.00 0.00 0.00 81 1037.8
20181117092818 36 51 5.0 10.0 0.00 0.00 0.00 81 1037.9
20181117092314 35 77 5.0 10.0 0.00 0.00 0.00 81 1037.8
20181117091816 35 65 5.0 9.0 0.00 0.00 0.00 82 1037.7
20181117091315 35 99 6.0 9.0 0.00 0.00 0.00 82 1037.5
20181117090817 35 67 5.0 10.0 0.00 0.00 0.00 83 1037.7
20181117090317 35 61 8.0 10.0 0.00 0.00 0.00 82 1037.7
20181117085818 35 80 8.0 10.0 0.00 0.00 0.00 82 1037.4
20181117085315 35 19 5.0 9.0 0.00 0.00 0.00 83 1037.3
20181117084816 34 89 5.0 10.0 0.00 0.00 0.00 83 1037.4
20181117084315 34 44 4.0 10.0 0.00 0.00 0.00 84 1037.3
20181117083816 34 92 6.0 9.0 0.00 0.00 0.00 85 1037.4
20181117083328 34 65 4.0 9.0 0.00 0.00 0.00 85 1037.5
20181117082827 33 58 5.0 9.0 0.00 0.00 0.00 86 1037.5
20181117082323 33 88 3.0 7.0 0.00 0.00 0.00 86 1037.4
20181117081826 33 73 4.0 12.0 0.00 0.00 0.00 86 1037.3
20181117081320 33 75 6.0 11.0 0.00 0.00 0.00 87 1037.4
20181117080822 33 70 6.0 10.0 0.00 0.00 0.00 87 1037.4
20181117080317 33 65 7.0 11.0 0.00 0.00 0.00 88 1037.4
20181117075819 32 87 7.0 11.0 0.00 0.00 0.00 88 1037.3
20181117075315 32 99 8.0 12.0 0.00 0.00 0.00 88 1037.4
20181117074820 32 67 6.0 12.0 0.00 0.00 0.00 89 1037.3
20181117074314 32 75 6.0 10.0 0.00 0.00 0.00 89 1037.4
20181117073815 31 57 6.0 11.0 0.00 0.00 0.00 89 1037.4
20181117073314 31 77 7.0 10.0 0.00 0.00 0.00 89 1037.4
20181117072815 31 78 6.0 10.0 0.00 0.00 0.00 89 1037.4
20181117072316 31 84 6.0 10.0 0.00 0.00 0.00 89 1037.4
20181117071817 31 64 5.0 10.0 0.00 0.00 0.00 89 1037.4
20181117071313 31 50 3.0 9.0 0.00 0.00 0.00 89 1037.5
20181117070814 31 74 4.0 6.0 0.00 0.00 0.00 89 1037.4
20181117070313 31 64 5.0 11.0 0.00 0.00 0.00 89 1037.3
20181117065818 31 51 6.0 11.0 0.00 0.00 0.00 89 1037.3
20181117065314 31 104 4.0 10.0 0.00 0.00 0.00 89 1037.3
20181117064816 31 41 8.0 10.0 0.00 0.00 0.00 89 1037.2
20181117064310 31 91 7.0 10.0 0.00 0.00 0.00 89 1037.0
20181117063814 31 51 7.0 9.0 0.00 0.00 0.00 88 1037.1
20181117063311 31 88 7.0 10.0 0.00 0.00 0.00 89 1037.1
20181117062813 31 92 6.0 7.0 0.00 0.00 0.00 89 1037.0
20181117062312 31 50 5.0 9.0 0.00 0.00 0.00 89 1036.9
20181117061811 31 89 4.0 10.0 0.00 0.00 0.00 88 1036.9
20181117061311 31 80 6.0 10.0 0.00 0.00 0.00 88 1036.9
20181117060812 31 94 2.0 10.0 0.00 0.00 0.00 88 1036.8
20181117060311 31 65 6.0 10.0 0.00 0.00 0.00 88 1036.8
20181117055815 32 77 3.0 7.0 0.00 0.00 0.00 88 1036.7
20181117055311 32 70 6.0 12.0 0.00 0.00 0.00 88 1036.6
20181117054812 32 67 5.0 12.0 0.00 0.00 0.00 88 1036.6
20181117054309 32 94 5.0 7.0 0.00 0.00 0.00 87 1036.6
20181117053812 32 85 6.0 7.0 0.00 0.00 0.00 87 1036.8
20181117053310 32 88 5.0 7.0 0.00 0.00 0.00 87 1036.7
20181117052812 32 85 4.0 6.0 0.00 0.00 0.00 87 1036.7
20181117052311 32 80 5.0 5.0 0.00 0.00 0.00 87 1036.7
20181117051824 32 82 4.0 6.0 0.00 0.00 0.00 87 1036.7
20181117051320 33 44 5.0 9.0 0.00 0.00 0.00 87 1036.7
20181117050821 33 50 5.0 10.0 0.00 0.00 0.00 87 1036.7
20181117050316 33 49 6.0 10.0 0.00 0.00 0.00 86 1036.8
20181117045818 33 53 5.0 6.0 0.00 0.00 0.00 86 1036.8
20181117045314 33 39 4.0 6.0 0.00 0.00 0.00 86 1036.8
20181117044814 33 68 4.0 6.0 0.00 0.00 0.00 85 1036.7
20181117044312 34 40 4.0 7.0 0.00 0.00 0.00 85 1036.8
20181117043814 34 32 5.0 7.0 0.00 0.00 0.00 85 1036.8
20181117043309 34 61 4.0 9.0 0.00 0.01 0.00 85 1036.7
20181117042811 34 75 8.0 11.0 0.00 0.01 0.00 85 1036.8
20181117042309 34 60 5.0 13.0 0.00 0.01 0.00 85 1036.8
20181117041810 34 87 9.0 12.0 0.00 0.01 0.00 85 1036.7
20181117041309 34 19 6.0 11.0 0.00 0.01 0.00 85 1036.7
20181117040813 34 73 5.0 9.0 0.00 0.01 0.00 85 1036.8
20181117040311 34 87 6.0 9.0 0.00 0.01 0.00 85 1036.9
20181117035813 35 75 5.0 10.0 0.00 0.01 0.00 84 1036.8
20181117035311 35 81 6.0 9.0 0.00 0.01 0.00 84 1036.7
20181117034813 35 88 4.0 9.0 0.00 0.01 0.00 84 1036.7
20181117034308 35 91 3.0 7.0 0.00 0.01 0.00 84 1036.8
20181117033808 35 70 5.0 7.0 0.00 0.01 0.00 84 1036.7
20181117033309 35 75 5.0 7.0 0.00 0.01 0.00 84 1036.8
20181117032809 35 128 4.0 6.0 0.00 0.01 0.00 84 1036.7
20181117032310 35 70 4.0 7.0 0.00 0.01 0.00 84 1036.8
20181117031812 36 73 5.0 7.0 0.00 0.01 0.00 84 1036.8
20181117031309 36 57 3.0 7.0 0.00 0.01 0.00 83 1036.8
20181117030811 36 70 7.0 5.0 0.00 0.01 0.00 83 1036.8
20181117030308 36 70 3.0 10.0 0.00 0.01 0.00 82 1036.7
20181117025808 36 87 6.0 10.0 0.00 0.01 0.00 82 1036.7
20181117025308 37 75 5.0 9.0 0.00 0.01 0.00 82 1036.8
20181117024808 37 94 6.0 9.0 0.00 0.01 0.00 82 1036.8
20181117024307 37 65 6.0 11.0 0.00 0.01 0.00 82 1036.7
20181117023809 37 119 7.0 10.0 0.00 0.01 0.00 82 1036.8
20181117023309 37 65 6.0 13.0 0.00 0.01 0.00 82 1036.8
20181117022811 37 57 5.0 13.0 0.00 0.01 0.00 82 1036.9
20181117022311 37 95 6.0 14.0 0.00 0.01 0.00 83 1037.0
20181117021812 37 80 8.0 14.0 0.00 0.01 0.00 83 1037.0
20181117021323 37 77 8.0 12.0 0.00 0.01 0.00 83 1037.0
20181117020822 37 73 5.0 11.0 0.00 0.01 0.00 83 1036.9
20181117020316 37 60 9.0 11.0 0.00 0.01 0.00 83 1036.9
20181117015815 37 88 5.0 13.0 0.00 0.01 0.00 83 1036.9
20181117015308 37 67 8.0 13.0 0.00 0.01 0.00 83 1037.0
20181117014807 37 67 6.0 12.0 0.00 0.01 0.00 83 1036.9
20181117014308 37 87 8.0 11.0 0.00 0.01 0.00 83 1036.9
20181117013810 37 84 7.0 13.0 0.00 0.01 0.00 83 1036.9
20181117013308 37 78 7.0 13.0 0.00 0.01 0.00 83 1037.0
20181117012809 37 73 10.0 12.0 0.00 0.01 0.00 83 1036.9
20181117012305 37 85 7.0 13.0 0.00 0.01 0.00 83 1036.8
20181117011808 37 64 9.0 13.0 0.00 0.01 0.00 83 1036.8
20181117011304 37 87 8.0 12.0 0.00 0.01 0.00 83 1036.7
20181117010806 37 75 9.0 12.0 0.00 0.01 0.00 84 1036.9
20181117010305 37 88 6.0 10.0 0.00 0.01 0.00 84 1036.9
20181117005806 37 70 7.0 12.0 0.00 0.01 0.00 84 1037.0
20181117005308 37 75 8.0 9.0 0.00 0.01 0.00 84 1037.0
20181117004808 36 81 5.0 11.0 0.00 0.01 0.00 84 1037.0
20181117004307 36 41 6.0 11.0 0.00 0.01 0.00 84 1037.0
20181117003810 36 81 7.0 10.0 0.00 0.01 0.00 84 1037.0
20181117003307 36 64 7.0 10.0 0.00 0.01 0.00 84 1036.9
20181117002812 36 84 7.0 10.0 0.00 0.01 0.00 85 1036.8
20181117002303 36 96 5.0 7.0 0.00 0.01 0.00 85 1036.9
20181117001805 36 92 4.0 9.0 0.00 0.01 0.00 85 1036.8
20181117001303 36 105 7.0 10.0 0.00 0.01 0.00 85 1036.8
20181117000806 36 87 4.0 10.0 0.00 0.01 0.00 85 1036.8
20181117000304 36 89 4.0 6.0 0.00 0.01 0.00 85 1036.7
20181116235806 36 68 4.0 7.0 0.00 0.01 0.00 84 1036.7
20181116235302 36 58 5.0 9.0 0.00 0.01 0.00 84 1036.7
20181116234804 36 84 5.0 9.0 0.00 0.01 0.00 84 1036.8
20181116234303 36 73 5.0 9.0 0.00 0.01 0.00 84 1036.7
20181116233804 36 71 6.0 10.0 0.00 0.01 0.00 84 1036.7
20181116233302 36 65 6.0 10.0 0.00 0.01 0.00 84 1036.9
20181116232820 36 70 7.0 11.0 0.00 0.01 0.00 84 1036.8
20181116232313 36 84 7.0 11.0 0.00 0.01 0.00 84 1036.8
20181116231812 36 78 6.0 10.0 0.00 0.01 0.00 84 1036.7
20181116231310 36 65 5.0 10.0 0.00 0.01 0.00 84 1036.7
20181116230810 36 74 5.0 10.0 0.00 0.01 0.00 84 1036.7
20181116230309 36 78 6.0 11.0 0.00 0.01 0.00 84 1036.6
20181116225807 36 112 7.0 10.0 0.00 0.01 0.01 84 1036.6
20181116225303 36 56 6.0 10.0 0.00 0.01 0.01 84 1036.6
20181116224802 36 108 7.0 9.0 0.00 0.01 0.01 84 1036.5
20181116224304 36 61 7.0 10.0 0.00 0.01 0.01 84 1036.5
20181116223801 36 105 9.0 10.0 0.00 0.01 0.01 84 1036.5
20181116223302 36 51 5.0 9.0 0.00 0.01 0.01 84 1036.5
20181116222803 37 92 6.0 9.0 0.00 0.01 0.01 84 1036.6
20181116222301 37 58 3.0 9.0 0.00 0.01 0.01 83 1036.6
20181116221802 37 92 5.0 10.0 0.00 0.01 0.01 83 1036.6
20181116221300 37 50 6.0 11.0 0.00 0.01 0.01 83 1036.5
20181116220802 37 94 6.0 10.0 0.00 0.01 0.01 83 1036.4
20181116220259 37 70 7.0 10.0 0.00 0.01 0.01 83 1036.3
20181116215802 37 78 5.0 7.0 0.00 0.01 0.01 83 1036.3
20181116215301 37 70 6.0 7.0 0.00 0.01 0.01 83 1036.3
20181116214802 37 71 5.0 7.0 0.00 0.01 0.01 83 1036.3
20181116214300 37 78 6.0 9.0 0.00 0.01 0.01 83 1036.1
20181116213802 37 71 6.0 10.0 0.00 0.01 0.01 82 1036.1
20181116213300 38 94 5.0 10.0 0.00 0.01 0.01 82 1036.1
20181116212801 38 65 6.0 9.0 0.00 0.01 0.01 82 1036.0
20181116212300 38 109 4.0 9.0 0.00 0.01 0.01 82 1036.2
20181116211801 38 68 4.0 7.0 0.00 0.01 0.01 81 1036.1
20181116211258 38 99 5.0 11.0 0.00 0.01 0.01 81 1036.0
20181116210801 38 84 6.0 11.0 0.00 0.01 0.01 81 1036.1
20181116210259 38 82 8.0 10.0 0.00 0.01 0.01 81 1036.0
20181116205806 38 65 6.0 9.0 0.00 0.01 0.01 81 1036.1
20181116205300 39 77 5.0 9.0 0.00 0.01 0.01 80 1036.2
20181116204804 39 108 6.0 7.0 0.00 0.01 0.01 80 1036.1
20181116204302 39 71 4.0 10.0 0.00 0.01 0.01 80 1036.1
20181116203802 39 80 6.0 10.0 0.00 0.01 0.01 80 1036.0
20181116203312 39 70 7.0 11.0 0.00 0.01 0.01 80 1036.0
20181116202811 39 98 9.0 11.0 0.00 0.01 0.01 80 1036.0
20181116202308 39 71 4.0 10.0 0.00 0.01 0.01 80 1036.1
20181116201808 40 60 7.0 13.0 0.00 0.01 0.01 80 1036.1
20181116201302 40 78 9.0 13.0 0.00 0.01 0.01 79 1036.2
20181116200802 40 73 6.0 11.0 0.00 0.01 0.01 79 1036.2
20181116200258 40 70 7.0 11.0 0.00 0.01 0.01 80 1036.2
20181116195800 40 122 5.0 10.0 0.00 0.01 0.01 80 1036.3
20181116195259 40 74 7.0 10.0 0.00 0.01 0.01 80 1036.2
20181116194800 40 98 6.0 10.0 0.00 0.01 0.01 79 1036.2
20181116194257 40 99 8.0 10.0 0.00 0.01 0.01 80 1036.3
20181116193804 40 78 5.0 9.0 0.00 0.01 0.01 80 1036.3
20181116193257 40 92 6.0 12.0 0.00 0.01 0.01 80 1036.3
20181116192800 40 74 8.0 12.0 0.00 0.01 0.01 80 1036.2
20181116192303 40 82 5.0 9.0 0.00 0.01 0.01 80 1036.2
20181116191802 40 78 8.0 11.0 0.00 0.01 0.01 80 1036.1
20181116191301 40 70 9.0 11.0 0.00 0.01 0.01 80 1036.1
20181116190801 40 33 7.0 11.0 0.00 0.01 0.01 80 1036.1
20181116190300 40 54 8.0 10.0 0.00 0.01 0.01 80 1036.1
20181116185758 40 85 6.0 10.0 0.00 0.01 0.01 80 1036.2
20181116185257 40 61 7.0 12.0 0.00 0.01 0.01 79 1036.2
20181116184757 40 56 7.0 12.0 0.00 0.01 0.01 79 1036.1
20181116184255 40 49 8.0 13.0 0.00 0.01 0.01 79 1036.0
20181116183802 41 68 7.0 13.0 0.00 0.01 0.01 79 1035.9
20181116183258 41 70 8.0 15.0 0.00 0.01 0.01 80 1035.9
20181116182800 41 99 6.0 15.0 0.00 0.01 0.01 79 1035.9
20181116182254 41 60 7.0 10.0 0.00 0.01 0.01 80 1035.9
20181116181759 41 51 7.0 10.0 0.00 0.01 0.01 80 1035.9
20181116181255 41 108 4.0 10.0 0.00 0.01 0.01 79 1035.8
20181116180757 41 60 6.0 10.0 0.00 0.01 0.01 79 1035.8
20181116180254 41 111 5.0 12.0 0.00 0.01 0.01 79 1035.8
20181116175756 41 68 8.0 14.0 0.00 0.01 0.01 79 1035.7
20181116175254 41 81 9.0 15.0 0.00 0.01 0.01 79 1035.7
20181116174758 41 53 9.0 15.0 0.00 0.01 0.01 79 1035.7
20181116174257 41 50 5.0 13.0 0.00 0.01 0.01 79 1035.7
20181116173758 41 50 9.0 12.0 0.00 0.01 0.01 79 1035.6
20181116173256 41 29 7.0 12.0 0.00 0.01 0.01 79 1035.7
20181116172757 41 85 7.0 11.0 0.00 0.01 0.01 79 1035.5
20181116172256 41 73 5.0 7.0 0.00 0.01 0.01 79 1035.6
20181116171758 41 89 5.0 11.0 0.00 0.01 0.01 79 1035.6
20181116171256 41 88 6.0 11.0 0.00 0.01 0.01 79 1035.6
20181116170807 41 58 7.0 7.0 0.00 0.01 0.01 79 1035.6
20181116170302 41 47 3.0 9.0 0.00 0.01 0.01 80 1035.7
20181116165806 42 57 7.0 15.0 0.00 0.01 0.01 79 1035.5
20181116165259 42 71 9.0 14.0 0.00 0.01 0.01 79 1035.5
20181116164758 42 64 6.0 10.0 0.00 0.01 0.01 79 1035.5
20181116164255 42 89 5.0 10.0 0.00 0.01 0.01 79 1035.5
20181116163758 42 56 4.0 12.0 0.00 0.01 0.01 79 1035.5
20181116163309 42 73 4.0 12.0 0.00 0.01 0.01 79 1035.4
20181116162809 42 77 6.0 10.0 0.00 0.01 0.01 78 1035.5
20181116162309 42 57 4.0 10.0 0.00 0.01 0.01 77 1035.4
20181116161811 42 58 6.0 7.0 0.00 0.01 0.01 77 1035.3
20181116161256 42 88 5.0 10.0 0.00 0.01 0.01 77 1035.4
20181116160754 42 74 7.0 9.0 0.00 0.01 0.01 76 1035.4
20181116160256 42 75 3.0 5.0 0.00 0.01 0.01 76 1035.3
20181116155756 43 65 4.0 6.0 0.00 0.01 0.01 75 1035.4
20181116155255 43 64 3.0 6.0 0.00 0.01 0.01 75 1035.3
20181116154754 43 82 3.0 5.0 0.00 0.01 0.01 74 1035.3
20181116154250 43 70 3.0 6.0 0.00 0.01 0.01 73 1035.1
20181116153755 43 68 5.0 7.0 0.00 0.01 0.01 73 1035.1
20181116153256 43 81 4.0 11.0 0.00 0.01 0.01 73 1035.1
20181116152754 43 92 10.0 6.0 0.00 0.01 0.01 72 1035.1
20181116152252 43 84 4.0 6.0 0.00 0.01 0.01 72 1035.2
20181116151754 43 91 6.0 10.0 0.00 0.01 0.01 72 1034.9
20181116151252 43 47 5.0 9.0 0.00 0.01 0.01 72 1034.9
20181116150753 43 85 7.0 7.0 0.00 0.01 0.01 72 1034.8
20181116150252 43 87 4.0 6.0 0.00 0.01 0.01 72 1034.8
20181116145756 43 106 4.0 7.0 0.00 0.01 0.01 73 1034.7
20181116145256 43 75 7.0 7.0 0.00 0.01 0.01 73 1034.7
20181116144755 43 99 5.0 7.0 0.00 0.01 0.01 72 1034.7
20181116144255 43 60 6.0 9.0 0.00 0.01 0.01 72 1034.6
20181116143753 43 78 6.0 9.0 0.00 0.01 0.01 72 1034.6
20181116143250 44 88 6.0 10.0 0.00 0.01 0.01 72 1034.7
20181116142752 44 84 7.0 12.0 0.00 0.01 0.01 72 1034.7
20181116142251 44 82 8.0 12.0 0.00 0.01 0.01 72 1034.7
20181116141753 44 84 6.0 10.0 0.00 0.01 0.01 71 1034.6
20181116141252 44 104 7.0 10.0 0.00 0.01 0.01 71 1034.6
20181116140750 44 87 6.0 6.0 0.00 0.01 0.01 71 1034.6
20181116140250 44 84 4.0 12.0 0.00 0.01 0.01 72 1034.6
20181116135753 44 88 8.0 12.0 0.00 0.01 0.01 72 1034.6
20181116135251 44 80 5.0 9.0 0.00 0.01 0.01 71 1034.6
20181116134755 44 89 5.0 12.0 0.00 0.01 0.01 71 1034.7
20181116134252 44 50 10.0 12.0 0.00 0.01 0.01 71 1034.5
20181116133755 44 78 8.0 10.0 0.00 0.01 0.01 71 1034.7
20181116133253 44 70 7.0 9.0 0.00 0.01 0.01 71 1034.7
20181116132754 44 67 6.0 10.0 0.00 0.01 0.01 71 1034.7
20181116132253 44 56 7.0 10.0 0.00 0.01 0.01 71 1034.7
20181116131806 45 74 5.0 7.0 0.00 0.01 0.01 71 1034.7
20181116131303 45 63 4.0 6.0 0.00 0.01 0.01 71 1034.7
20181116130803 45 58 6.0 7.0 0.00 0.01 0.01 71 1034.8
20181116130256 45 56 6.0 7.0 0.00 0.01 0.01 71 1034.8
20181116125754 45 80 5.0 9.0 0.00 0.01 0.01 71 1034.9
20181116125250 45 104 5.0 10.0 0.00 0.01 0.01 71 1034.9
20181116124754 45 46 6.0 11.0 0.00 0.01 0.01 71 1034.8
20181116124251 45 77 6.0 14.0 0.00 0.01 0.01 70 1034.8
20181116123752 45 91 10.0 14.0 0.00 0.01 0.01 70 1034.8
20181116123249 45 81 8.0 11.0 0.00 0.01 0.01 70 1034.8
20181116122750 45 68 6.0 11.0 0.00 0.01 0.01 70 1034.8
20181116122247 45 54 5.0 10.0 0.00 0.01 0.01 70 1034.8
20181116121753 46 49 4.0 12.0 0.00 0.01 0.01 70 1034.9
20181116121249 46 85 9.0 13.0 0.00 0.01 0.01 70 1034.8
20181116120751 46 85 9.0 12.0 0.00 0.01 0.01 70 1034.8
20181116120251 46 89 7.0 12.0 0.00 0.01 0.01 70 1034.8
20181116115753 46 70 4.0 11.0 0.00 0.01 0.01 70 1034.7
20181116115250 46 88 5.0 11.0 0.00 0.01 0.01 70 1034.8
20181116114752 46 129 6.0 10.0 0.00 0.01 0.01 70 1034.8
20181116114250 46 34 7.0 12.0 0.00 0.01 0.01 70 1034.7
20181116113753 47 116 7.0 12.0 0.00 0.01 0.01 70 1034.9
20181116113250 46 133 3.0 14.0 0.00 0.01 0.01 70 1034.9
20181116112755 46 92 10.0 14.0 0.00 0.01 0.01 71 1034.9
20181116112247 46 92 9.0 11.0 0.00 0.01 0.01 72 1034.9
20181116111749 46 63 6.0 6.0 0.00 0.01 0.01 72 1034.9
20181116111247 45 125 4.0 9.0 0.00 0.01 0.01 72 1034.9
20181116110749 45 130 5.0 10.0 0.00 0.01 0.01 72 1034.9
20181116110247 45 82 8.0 10.0 0.00 0.01 0.01 72 1034.9
20181116105748 45 85 7.0 12.0 0.00 0.01 0.01 73 1034.9
20181116105247 45 57 6.0 12.0 0.00 0.01 0.01 73 1035.1
20181116104748 45 101 5.0 10.0 0.00 0.01 0.01 73 1035.0
20181116104246 45 84 4.0 5.0 0.00 0.01 0.01 73 1035.1
20181116103755 45 92 2.0 10.0 0.00 0.01 0.01 73 1035.1